Change the Weather History Date:

Wednesday, November 23, 2011

  Actual Average Record
Temperature  
Mean Temperature 53 °F 45 °F  
Max Temperature 62 °F 56 °F 75 °F (1973)
Min Temperature 44 °F 34 °F 13 °F (1937)
Degree Days  
Heating Degree Days 12 20  
Month to date heating degree days 355 383  
Since 1 July heating degree days 716 718  
Cooling Degree Days 0 0  
Month to date cooling degree days 0 0  
Year to date cooling degree days 1201 862  
Growing Degree Days 2 (Base 50)    
Moisture  
Dew Point 46 °F    
Average Humidity 81    
Maximum Humidity 100    
Minimum Humidity 61    
Precipitation  
Precipitation 0.02 in 0.14 in 2.63 in (1961)
Month to date precipitation 2.73 2.70  
Year to date precipitation 38.34 41.03  
Snow  
Snow 0.00 in 0.00 in 5.00 in (1975)
Month to date snowfall 0.0 0.1  
Since 1 July snowfall 0.0 0.1  
Since 1 September snowfall 0.0 0.1  
Snow Depth 0.00 in    
Sea Level Pressure  
Sea Level Pressure 29.97 in    
Wind  
Wind Speed 13 mph (NNW)    
Max Wind Speed 32 mph    
Max Gust Speed 43 mph    
Visibility 8 miles    
Events Fog    
T = Trace of Precipitation, MM = Missing Value Source: NWS Daily Summary

Daily Weather History Graph

Daily Weather History Graph

Search for Another Location

Airport or City:

Trip Planner

Search our weather history database for the weather conditions in past years. The results will help you decide how hot, cold, wet, or windy it might be!

Date:

Astronomy

Nov. 23, 2011 Rise Set
Actual Time 7:13 AM EST 5:19 PM EST
Civil Twilight 6:45 AM EST 5:47 PM EST
Nautical Twilight 6:14 AM EST 6:18 PM EST
Astronomical Twilight 5:44 AM EST 6:48 PM EST
Moon 5:17 AM EST (11/23) 3:59 PM EST (11/23)
Length of Visible Light 11h 01m
Length of Day
10h 06m
Waning Crescent, 4% of the Moon is Illuminated
Nov 23
Waning Crescent
Nov 25
New
Dec 2
First Quarter
Dec 10
Full
Dec 17
Last Quarter

Hourly Weather History & Observations

Time (EST) Temp. Windchill Dew Point Humidity Pressure Visibility Wind Dir Wind Speed Gust Speed Precip Events Conditions
12:54 AM 60.1 °F - 59.0 °F 96% 29.85 in 10.0 mi Calm Calm - 0.00 in   Overcast
1:38 AM 57.2 °F - 57.2 °F 100% 29.89 in 2.5 mi Calm Calm - N/A   Scattered Clouds
1:50 AM 57.2 °F - 57.2 °F 100% 29.88 in 4.0 mi Calm Calm - N/A   Partly Cloudy
1:54 AM 57.0 °F - 57.0 °F 100% 29.83 in 3.0 mi Calm Calm - N/A   Partly Cloudy
1:57 AM 57.2 °F - 57.2 °F 100% 29.88 in 1.8 mi Calm Calm - N/A   Partly Cloudy
2:03 AM 57.2 °F - 57.2 °F 100% 29.89 in 1.0 mi SSW 4.6 mph - N/A   Mist
2:10 AM 57.2 °F - 57.2 °F 100% 29.89 in 0.2 mi South 3.5 mph - N/A Fog Fog
2:25 AM 55.4 °F - 55.4 °F 100% 29.89 in 0.5 mi Calm Calm - N/A Fog Fog
2:54 AM 55.9 °F - 55.0 °F 97% 29.83 in 1.5 mi NNW 3.5 mph - N/A   Scattered Clouds
3:02 AM 53.6 °F - 53.6 °F 100% 29.87 in 0.8 mi Calm Calm - N/A   Mist
3:20 AM 55.4 °F - 55.4 °F 100% 29.86 in 1.2 mi North 3.5 mph - N/A   Scattered Clouds
3:24 AM 55.4 °F - 53.6 °F 94% 29.86 in 2.0 mi Calm Calm - N/A   Scattered Clouds
3:32 AM 53.6 °F - 53.6 °F 100% 29.86 in 8.0 mi NNW 4.6 mph - N/A   Partly Cloudy
3:54 AM 54.0 °F - 53.1 °F 97% 29.81 in 10.0 mi Calm Calm - N/A   Clear
4:54 AM 54.0 °F - 53.1 °F 97% 29.81 in 10.0 mi NNW 3.5 mph - N/A   Scattered Clouds
5:54 AM 57.0 °F - 54.0 °F 89% 29.82 in 10.0 mi North 5.8 mph - N/A   Scattered Clouds
6:54 AM 55.4 °F - 51.8 °F 88% 29.90 in 10.0 mi NNW 17.3 mph - N/A   Overcast
7:54 AM 55.0 °F - 48.0 °F 77% 29.88 in 10.0 mi North 11.5 mph - N/A   Overcast
8:54 AM 52.0 °F - 48.0 °F 86% 29.93 in 10.0 mi North 13.8 mph - N/A   Overcast
9:54 AM 52.0 °F - 43.0 °F 71% 29.95 in 10.0 mi NNW 25.3 mph 36.8 mph 0.00 in   Overcast
10:18 AM 51.8 °F - 44.6 °F 76% 29.99 in 10.0 mi NNW 20.7 mph 27.6 mph N/A   Mostly Cloudy
10:54 AM 51.1 °F - 42.1 °F 71% 29.98 in 10.0 mi North 25.3 mph 38.0 mph N/A   Mostly Cloudy
11:15 AM 51.8 °F - 41.0 °F 67% 30.03 in 10.0 mi North 23.0 mph 42.6 mph N/A   Mostly Cloudy
11:40 AM 50.0 °F - 39.2 °F 66% 30.05 in 10.0 mi North 20.7 mph 33.4 mph N/A   Overcast
11:54 AM 48.9 °F - 39.0 °F 69% 30.01 in 10.0 mi North 17.3 mph 28.8 mph N/A   Overcast
12:05 PM 48.2 °F - 39.2 °F 71% 30.05 in 10.0 mi North 18.4 mph 31.1 mph N/A   Overcast
12:24 PM 48.2 °F - 39.2 °F 71% 30.04 in 10.0 mi North 16.1 mph 27.6 mph N/A   Overcast
12:54 PM 48.9 °F - 39.9 °F 71% 30.02 in 10.0 mi North 15.0 mph 23.0 mph N/A   Overcast
1:54 PM 48.9 °F - 39.0 °F 69% 30.03 in 10.0 mi NNW 19.6 mph 27.6 mph N/A   Overcast
2:54 PM 48.9 °F - 37.9 °F 66% 30.04 in 10.0 mi NNW 19.6 mph 28.8 mph N/A   Overcast
3:54 PM 50.0 °F - 37.0 °F 61% 30.06 in 10.0 mi NW 25.3 mph 35.7 mph N/A   Overcast
4:01 PM 50.0 °F - 37.4 °F 62% 30.08 in 10.0 mi NNW 25.3 mph 31.1 mph N/A   Scattered Clouds
4:54 PM 48.9 °F - 37.0 °F 64% 30.08 in 10.0 mi NNW 18.4 mph 27.6 mph N/A   Scattered Clouds
5:54 PM 46.9 °F - 36.0 °F 66% 30.11 in 10.0 mi NNW 13.8 mph 24.2 mph N/A   Partly Cloudy
6:54 PM 46.9 °F - 36.0 °F 66% 30.13 in 10.0 mi NNW 11.5 mph 18.4 mph N/A   Partly Cloudy
7:54 PM 46.9 °F - 36.0 °F 66% 30.15 in 10.0 mi North 12.7 mph 19.6 mph N/A   Clear
8:54 PM 46.0 °F 40.6 °F 37.0 °F 71% 30.17 in 10.0 mi North 11.5 mph 19.6 mph N/A   Clear
9:54 PM 46.0 °F 39.9 °F 35.1 °F 66% 30.18 in 10.0 mi North 13.8 mph 25.3 mph N/A   Clear
10:54 PM 45.0 °F 39.7 °F 34.0 °F 65% 30.20 in 10.0 mi North 10.4 mph - N/A   Clear
11:54 PM 44.1 °F 37.4 °F 34.0 °F 68% 30.21 in 10.0 mi North 13.8 mph 21.9 mph N/A   Clear